This is the latest recevied weather packets stored in our database for station/object K7ZQU-7. If no packets are shown the sender has not sent any weather packets the latest 10 day(s).
| Time | Temp. | Humidity | Pressure | Rain* | Wind** | Luminosity | Snow |
|---|---|---|---|---|---|---|---|
| 1777944828 | 16.11° C | 38% | 1011.8 hPa | 0 mm | 2.68 m/s, 314° | - | - |
| 1777944525 | 16.11° C | 38% | 1011.9 hPa | 0 mm | 2.24 m/s, 13° | - | - |
| 1777944226 | 16.11° C | 38% | 1011.9 hPa | 0 mm | 2.24 m/s, 14° | - | - |
| 1777943927 | 16.67° C | 36% | 1012 hPa | 0 mm | 2.24 m/s, 235° | - | - |
| 1777943326 | 16.67° C | 35% | 1011.9 hPa | 0 mm | 3.13 m/s, 295° | - | - |
| 1777943028 | 16.67° C | 35% | 1012 hPa | 0 mm | 3.13 m/s, 321° | - | - |
| 1777942729 | 17.22° C | 36% | 1012.1 hPa | 0 mm | 2.68 m/s, 298° | - | - |
| 1777941829 | 17.78° C | 34% | 1012.1 hPa | 0 mm | 3.13 m/s, 284° | - | - |
| 1777941531 | 17.78° C | 35% | 1012.1 hPa | 0 mm | 3.13 m/s, 332° | - | - |
| 1777940631 | 17.78° C | 36% | 1012.1 hPa | 0 mm | 1.34 m/s, 326° | - | - |
| 1777940332 | 17.78° C | 35% | 1012.1 hPa | 0 mm | 3.58 m/s, 294° | - | - |
| 1777940033 | 17.78° C | 35% | 1012.1 hPa | 0 mm | 3.13 m/s, 357° | - | - |
| 1777939735 | 18.33° C | 36% | 1012.1 hPa | 0 mm | 2.68 m/s, 321° | - | - |
| 1777939436 | 18.33° C | 36% | 1012.1 hPa | 0 mm | 1.34 m/s, 315° | - | - |
| 1777938835 | 18.33° C | 35% | 1012.1 hPa | 0 mm | 2.24 m/s, 315° | - | - |
| 1777938536 | 18.33° C | 34% | 1012.1 hPa | 0 mm | 2.24 m/s, 58° | - | - |
| 1777937939 | 18.33° C | 34% | 1012.2 hPa | 0 mm | 3.58 m/s, 304° | - | - |
| 1777937637 | 18.33° C | 36% | 1012.1 hPa | 0 mm | 1.79 m/s, 316° | - | - |
| 1777937039 | 18.89° C | 35% | 1012.1 hPa | 0 mm | 2.68 m/s, 319° | - | - |
| 1777936740 | 18.89° C | 36% | 1012.1 hPa | 0 mm | 2.68 m/s, 315° | - | - |
| 1777936141 | 18.89° C | 35% | 1012.2 hPa | 0 mm | 2.68 m/s, 333° | - | - |
| 1777935542 | 18.89° C | 36% | 1012.2 hPa | 0 mm | 2.68 m/s, 326° | - | - |
| 1777935243 | 18.89° C | 35% | 1012.2 hPa | 0 mm | 3.13 m/s, 302° | - | - |
| 1777934945 | 18.89° C | 36% | 1012.4 hPa | 0 mm | 2.68 m/s, 293° | - | - |
| 1777934643 | 19.44° C | 37% | 1012.4 hPa | 0 mm | 2.24 m/s, 302° | - | - |
* Rain latest hour (hover to see other rain measurements)
** Current wind speed in m/s (hover to see current wind gust speed)